SCP
0 0 0 0 0 0 0 0 0 0 0 0 0 0 0 0 0 0 0 0 0 0 0 0 0 0 0 0 0 0 0 0 0 0 0 0 0 0 0 0 0 0 0
0 0 0 0 0 0 0 0 0 0 0 0 0 0 0 0 0 0 0 0 0 0 0 0 0 0 0 0 0 0 0 0 0 0 0 0 0 0 0 0 0 0 0
0 0 0 0 0 0 0 0 0 0 0 0 0 0 0 0 0 0 0 0 0 0 0 0 0 0 0 0 0 0 0 0 0 0 0 0 0 0 0 0 0 0 0
0 0 0 0 0 0 0 0 0 0 0 0 0 0 0 0 0 0 0 0 0 0 0 0 0 0 0 0 0 0 0 0 0 0 0 0 0 0 0 0 0 0 0
-0 0 0 0 0 0 0 0 0 0 0 0 0 0 0 0 0 0 0 0 0 0 0 0 0 0 0 0 0 0 0 0 0 0 0 0 0 0 0 0 0 0 0
-0 0 0 0 0 0 0 0 0 0 0 0 0 0 0 0 0 0 0 0 0 0 0 0 0 0 0 0 0 0 0 0 0 0 0 0 0 0 0 0 0 0 0
-0 0 0 0 0 0 0 0 0 0 0 0 0 0 0 0 0 0 0 0 0 0 0 0 0 0 0 0 0 0 0 0 0 0 0 0 0 0 0 0 0 0 0
-0 0 0 0 0 0 0 0 0 0 0 0 0 0 0 0 0 0 0 0 0 0 0 0 0 0 0 0 0 0 0 0 0 0 0 0 0 0 0 0 0 0 0
0 0 0 0 0 0 0 0 0 0 0 0 0 0 0 0 0 0 0 0 0 0 0 0 0 0 0 0 0 0 0 0 0 0 0 0 0 0 0 0 0 0 0
0 0 0 0 0 0 0 0 0 0 0 0 0 0 0 0 0 0 0 0 0 0 0 0 0 0 0 0 0 0 0 0 0 0 0 0 0 0 0 0 0 0 0
0 0 0 0 0 0 0 0 0 0 0 0 0 0 0 0 0 0 0 0 0 0 0 0 0 0 0 0 0 0 0 0 0 0 0 0 0 0 0 0 0 0 0
0 0 0 0 0 0 0 0 0 0 0 0 0 0 0 0 0 0 0 0 0 0 0 0 0 0 0 0 0 0 0 0 0 0 0 0 0 0 0 0 0 0 0
0 0 0 0 0 0 0 0 0 0 0 0 0 0 0 0 0 0 0 0 0 0 0 0 0 0 0 0 0 0 0 0 0 0 0 0 0 0 0 0 0 0 0
0 0 0 0 0 0 0 0 0 0 0 0 0 0 0 0 0 0 0 0 0 0 0 0 0 0 0 0 0 0 0 0 0 0 0 0 0 0 0 0 0 0 0
0 0 0 0 0 0 0 0 0 0 0 0 0 0 0 0 0 0 0 0 0 0 0 0 0 0 0 0 0 0 0 0 0 0 0 0 0 0 0 0 0 0 0
0 0 0 0 0 0 0 0 0 0 0 0 0 0 0 0 0 0 0 0 0 0 0 0 0 0 0 0 0 0 0 0 0 0 0 0 0 0 0 0 0 0 0
0 0 0 0 0 0 0 0 0 0 0 0 0 0 0 0 0 0 0 0 0 0 0 0 0 0 0 0 0 0 0 0 0 0 0 0 0 0 0 0 0 0 0
0 0 0 0 0 0 0 0 0 0 0 0 0 0 0 0 0 0 0 0 0 0 0 0 0 0 0 0 0 0 0 0 0 0 0 0 0 0 0 0 0 0 0
0 0 0 0 0 0 0 0 0 0 0 0 0 0 0 0 0 0 0 0 0 0 0 0 0 0 0 0 0 0 0 0 0 0 0 0 0 0 0 0 0 0 0
0 0 0 0 0 0 0 0 0 0 0 0 0 0 0 0 0 0 0 0 0 0 0 0 0 0 0 0 0 0 0 0 0 0 0 0 0 0 0 0 0 0 0
0 0 0 0 0 0 0 0 0 0 0 0 0 0 0 0 0 0 0 0 0 0 0 0 0 0 0 0 0 0 0 0 0 0 0 0 0 0 0 0 0 0 0
0 0 0 0 0 0 0 0 0 0 0 0 0 0 0 0 0 0 0 0 0 0 0 0 0 0 0 0 0 0 0 0 0 0 0 0 0 0 0 0 0 0 0
0 0 0 0 0 0 0 0 0 0 0 0 0 0 0 0 0 0 0 0 0 0 0 0 0 0 0 0 0 0 0 0 0 0 0 0 0 0 0 0 0 0 0
0 0 0 0 0 0 0 0 0 0 0 0 0 0 0 0 0 0 0 0 0 0 0 0 0 0 0 0 0 0 0 0 0 0 0 0 0 0 0 0 0 0 0
0 0 0 0 0 0 0 0 0 0 0 0 0 0 0 0 0 0 0 0 0 0 0 0 0 0 0 0 0 0 0 0 0 0 0 0 0 0 0 0 0 0 0
0 0 0 0 0 0 0 0 0 0 0 0 0 0 0 0 0 0 0 0 0 0 0 0 0 0 0 0 0 0 0 0 0 0 0 0 0 0 0 0 0 0 0
Wind_Speed
5 6 6 5 4 3 3 3 3 2 2 1 1 1 2 2 2 2 4 5 5 5 4 4 4 4 3 4 5 4 5 5 5 4 5 4 4 2 2 2 2 2 2
5 5 6 5 4 3 3 3 2 2 2 1 1 0 0 0 0 1 2 3 4 4 4 4 3 4 3 4 5 5 4 4 5 3 4 4 4 4 3 2 2 3 3
5 6 6 5 4 3 3 2 2 2 1 1 0 0 0 0 1 1 1 2 3 3 4 4 4 4 3 3 4 4 5 4 4 3 2 3 3 5 4 3 3 4 4
3 5 5 5 5 4 3 3 2 1 1 1 0 0 0 1 1 0 1 1 2 2 3 3 4 3 3 3 4 4 3 3 4 3 3 2 2 3 4 4 4 5 5
3 3 4 4 4 4 4 3 3 2 2 1 1 1 1 1 1 1 1 1 1 1 2 3 3 3 3 3 4 4 4 3 3 3 3 3 3 2 3 5 5 5 4
3 3 3 3 3 3 4 3 3 3 3 2 2 2 2 2 1 1 1 1 1 1 1 2 2 3 2 3 3 3 3 3 3 3 2 2 2 3 2 4 5 5 4
3 3 3 3 3 3 4 4 4 4 3 3 3 3 3 2 2 2 1 1 1 1 1 2 2 2 2 3 3 3 3 3 3 3 2 2 2 2 3 4 4 5 5
3 2 3 3 3 4 4 4 5 4 4 4 4 3 3 2 2 2 2 2 1 1 1 1 2 2 2 3 2 2 3 2 3 3 3 2 2 2 2 2 3 5 4
2 2 2 2 3 4 4 5 5 4 4 4 4 4 4 3 3 3 2 2 2 2 1 1 2 2 2 2 2 2 2 2 2 3 3 2 2 2 2 2 2 3 5
1 1 2 2 2 3 3 3 4 4 4 4 4 4 4 4 4 3 3 3 2 2 2 2 2 2 2 2 2 2 2 2 2 2 3 3 2 2 2 2 2 2 3
1 1 1 2 2 3 3 3 4 4 4 4 4 4 4 4 4 4 4 3 3 3 2 2 2 2 2 2 2 2 2 2 2 2 2 3 3 2 2 2 2 3 3
1 1 2 2 2 2 2 3 3 4 4 4 4 4 4 4 4 4 4 4 4 3 3 3 3 3 3 2 2 3 3 2 3 3 2 3 3 3 2 2 3 3 3
1 1 1 2 2 2 2 3 3 4 4 4 4 4 4 5 5 5 4 4 4 4 3 3 3 3 3 2 2 3 3 2 2 2 2 3 2 3 3 3 3 3 3
1 1 2 2 2 3 3 3 3 3 3 4 4 5 5 5 5 5 4 4 4 4 4 4 3 3 3 3 3 3 3 3 3 2 2 2 2 2 3 3 3 3 3
2 2 2 3 3 3 3 3 3 3 3 4 5 6 5 5 4 4 4 4 5 5 4 4 3 3 3 3 3 3 3 3 3 3 2 2 3 4 4 4 3 3 3
3 3 3 4 4 4 4 3 3 3 3 4 5 5 4 5 5 5 4 5 5 4 4 5 4 4 4 5 6 4 3 3 3 3 2 3 3 5 7 8 7 6 5
3 3 4 4 5 5 4 4 4 3 3 4 5 4 5 5 5 5 5 5 5 5 5 5 5 5 5 7 7 7 4 3 4 3 3 3 3 4 3 5 8 7 9
4 5 4 5 5 4 4 4 3 3 4 4 5 5 5 5 5 5 5 5 4 5 5 5 5 4 5 8 8 8 4 4 4 4 3 3 3 3 3 3 3 4 5
4 5 5 5 5 5 4 3 3 4 4 5 5 5 5 5 5 6 6 5 4 5 5 4 5 5 5 8 8 7 3 3 4 4 3 3 3 6 7 4 4 4 5
4 4 4 5 5 5 3 3 4 5 5 5 5 5 5 5 6 6 6 4 4 5 4 4 5 5 5 7 8 7 3 3 4 3 3 6 5 6 7 3 3 5 5
5 5 5 5 5 4 3 4 5 6 6 5 5 5 5 5 6 5 4 4 4 4 4 5 5 5 6 7 9 9 4 4 3 3 3 3 7 7 8 7 4 7 7
5 5 4 5 5 4 4 5 6 6 4 4 5 5 5 5 4 5 4 4 4 4 5 4 4 4 5 7 8 10 9 7 4 4 3 3 7 8 9 7 7 9 8
5 4 5 5 5 4 4 6 7 5 4 4 5 5 5 5 4 5 5 4 4 4 4 4 4 4 3 5 9 10 10 10 5 4 6 7 9 8 6 7 9 7 3
5 4 5 6 6 5 5 6 6 4 4 5 6 5 5 5 4 4 4 4 5 5 5 5 5 4 3 3 3 3 4 7 6 4 6 8 9 6 6 6 5 2 2
4 4 5 6 7 6 6 5 5 4 5 6 5 5 5 5 4 4 5 5 5 6 6 5 4 4 4 6 8 4 3 3 4 3 2 2 2 2 2 2 2 2 2
5 5 6 6 7 7 7 6 5 5 5 6 5 4 4 4 4 3 4 7 8 10 11 9 7 5 7 7 8 9 9 9 9 5 3 3 3 3 3 3 3 2 2
Wind_Direction
158 146 136 131 131 126 121 106 89 64 49 37 24 34 32 26 25 23 20 13 9 4 5 358 351 353 351 347 349 341 337 338 332 322 315 300 291 324 340 354 359 1 353
156 149 139 140 143 146 144 123 108 89 69 68 37 64 49 10 47 17 13 10 10 5 5 1 353 350 346 353 353 348 340 337 352 338 323 328 328 352 340 359 17 6 355
168 159 152 152 156 159 155 138 127 118 113 108 75 7 8 322 11 0 356 2 11 10 4 354 353 350 354 351 346 348 349 336 334 350 350 342 327 327 321 359 15 5 359
157 156 157 160 169 170 154 148 150 156 160 152 150 226 250 267 272 281 304 343 13 11 4 352 350 346 348 351 346 352 337 337 333 333 342 317 310 315 317 323 351 354 350
151 149 150 159 167 161 157 165 172 185 185 183 195 234 264 270 300 324 322 339 347 7 5 351 347 345 347 348 345 343 345 342 333 327 323 318 319 318 295 304 325 331 329
140 142 144 146 157 157 163 173 186 203 198 198 207 216 237 257 285 301 314 319 317 335 359 350 341 334 336 335 332 333 336 335 329 323 327 323 317 323 310 297 311 311 311
141 152 159 168 178 183 190 190 198 216 209 204 213 219 222 227 241 257 265 283 296 307 321 335 324 323 326 328 329 329 326 329 324 319 317 314 312 312 305 298 301 304 300
141 155 173 185 192 199 202 199 209 220 214 209 213 216 219 215 223 227 231 247 254 263 287 303 308 311 321 324 321 317 316 323 321 323 317 309 311 315 311 305 308 306 299
131 159 188 194 202 207 208 206 212 217 215 211 209 212 216 214 218 222 222 229 234 248 266 278 289 300 306 306 307 304 310 314 313 311 314 311 308 311 307 307 302 294 298
100 197 217 209 211 214 212 210 213 218 218 211 210 212 212 214 217 215 220 225 229 237 246 256 267 278 287 297 305 298 297 306 309 308 321 319 313 310 309 305 301 289 276
282 259 239 226 219 213 207 215 220 221 220 217 213 214 214 214 214 216 220 221 225 227 235 245 254 261 270 282 289 287 292 296 300 302 306 308 308 310 309 307 303 296 288
314 273 253 241 237 233 227 224 222 222 222 217 216 216 218 214 219 224 223 219 222 221 222 233 243 253 262 266 271 279 285 281 286 295 301 300 311 313 308 309 303 299 297
335 320 313 289 268 255 245 238 228 227 225 219 221 223 224 220 224 225 220 216 220 221 219 219 227 239 246 251 262 268 275 275 278 289 296 302 316 316 317 312 306 305 310
307 309 306 302 301 287 262 248 239 226 221 220 225 229 230 228 227 222 217 215 216 216 219 222 227 232 239 241 254 267 272 272 273 268 268 279 289 295 304 303 301 306 306
305 308 304 298 294 291 281 264 251 233 219 222 230 234 232 230 227 221 219 218 218 218 217 223 230 235 238 241 247 258 270 273 277 279 275 275 278 288 293 296 294 302 298
299 314 315 307 298 290 283 276 263 246 225 228 237 239 233 230 225 222 219 217 220 220 217 222 224 232 238 251 255 256 262 268 268 268 274 281 282 294 300 303 307 305 297
319 314 303 294 292 291 286 278 268 267 249 241 242 238 233 233 230 223 219 220 220 218 221 225 223 229 237 248 255 259 258 257 258 257 260 273 284 299 292 299 306 307 304
321 309 298 293 291 291 290 280 273 264 257 250 246 241 232 233 230 224 225 225 220 219 222 226 225 228 239 248 255 257 255 258 257 250 241 248 265 277 291 291 297 294 298
302 295 293 292 290 287 283 281 277 268 261 255 249 243 234 232 229 228 228 225 220 224 223 222 222 226 239 245 250 248 247 254 258 250 241 245 248 272 291 293 290 294 293
296 292 291 294 289 286 289 286 278 270 262 257 253 245 236 231 229 230 231 225 219 223 220 225 223 225 233 242 246 241 228 247 255 254 251 260 262 270 288 285 281 288 291
296 293 290 287 281 282 284 276 272 264 260 258 255 247 239 235 232 230 225 221 218 218 221 227 230 227 231 243 245 242 223 232 247 252 251 254 273 279 286 288 272 280 294
296 295 291 287 285 280 274 273 269 266 264 260 256 249 242 237 233 227 226 215 207 215 225 229 238 235 233 233 240 243 240 239 238 246 248 255 275 282 287 287 283 292 300
291 292 287 288 287 275 264 270 273 273 272 265 259 255 247 236 228 222 223 219 209 214 223 223 234 240 228 229 236 243 246 248 244 244 258 269 276 281 282 283 290 294 285
290 291 290 288 287 281 270 265 273 272 268 265 262 255 247 242 231 223 216 215 213 215 219 223 230 234 229 220 218 228 245 251 255 258 264 273 277 278 275 280 286 275 259
285 284 280 280 284 286 280 274 272 266 265 266 263 258 246 240 236 228 222 221 221 214 218 221 218 220 231 229 223 214 219 222 236 246 240 246 255 255 258 259 261 260 275
286 285 279 278 283 286 283 278 270 259 260 265 261 254 247 240 233 235 251 236 230 236 235 234 232 234 236 241 237 239 245 249 252 250 241 245 247 252 259 263 265 267 272